Skip Page Navigation
NASA JPL Caltech
NASA Logo - Jet Propulsion Laboratory + View the NASA Portal
+ Center for Near-Earth Object Studies
JPL Home Earth Solar System Stars & Galaxies Technology
JPL Solar System Dynamics
BODIES ORBITS EPHEMERIDES TOOLS PHYSICAL DATA DISCOVERY FAQ SITE MAP
IMPORTANT: The SSD Announcement email list is now available. Major changes are coming in the near future, including possible hostname and/or URL changes. To be notified of such changes, subscribe to this email list.

Please visit this page for more details.


JPL Small-Body Database Browser
Search: [ help ]  
15878 (1996 XC3)
Classification: Main-belt Asteroid          SPK-ID: 2015878
Ephemeris | Orbit Diagram | Orbital Elements | Mission Design | Physical Parameters | Discovery Circumstances | Close-Approach Data ]

[ show orbit diagram ]
Orbital Elements at Epoch 2459000.5 (2020-May-31.0) TDB
Reference: JPL 28 (heliocentric ecliptic J2000)
 Element Value Uncertainty (1-sigma)   Units 
e .1706932995686452 3.9891e-08  
a 3.179167640314214 1.8841e-08 au
q 2.636505025907117 1.2769e-07 au
i 11.47045911807408 4.3086e-06 deg
node 108.40890109 2.3286e-05 deg
peri 231.554882810918 2.6543e-05 deg
M 148.3207193640966 1.4519e-05 deg
tp 2458147.462952306949
(2018-Jan-28.96295231)
8.164e-05 TDB
period 2070.468229159864
5.67
1.8406e-05
5.039e-08
d
yr
n .1738737136507898 1.5457e-09 deg/d
Q 3.721830254721311 2.2057e-08 au
  Orbit Determination Parameters
   # obs. used (total)      1690  
   data-arc span      8463 days (23.17 yr)  
   first obs. used      1996-12-03  
   last obs. used      2020-02-04  
   planetary ephem.      DE431  
   SB-pert. ephem.      SB431-N16  
   condition code      0  
   norm. resid. RMS      .50381  
   source      ORB  
   producer      Otto Matic  
   solution date      2020-Feb-22 21:30:08  

Additional Information
 Earth MOID = 1.64512 au 
 Jupiter MOID = 1.71089 au 
 T_jup = 3.146 
[ show covariance matrix ]

Ephemeris | Orbit Diagram | Orbital Elements | Mission Design | Physical Parameters | Discovery Circumstances | Close-Approach Data ]

Physical Parameter Table
Parameter Symbol Value Units Sigma Reference Notes
absolute magnitude H 12.9   n/a MPO458972  
diameter diameter 14.708 km 0.317 urn:nasa:pds:neowise_diameters_albedos::2.0[mainbelt] (http://adsabs.harvard.edu/abs/2011ApJ...741...68M)  
rotation period rot_per 4.918 h n/a LCDB (Rev. 2019-August); Warner et al., 2009 Result based on less than full coverage, so that the period may be wrong by 30 percent or so.
Published Reference List:
[Waszczak, A.; Chang, C.-K.; Ofeck, E.O.; Laher, F.; et al. (2015) Astron. J. 150, A75.]
geometric albedo albedo 0.068   0.006 urn:nasa:pds:neowise_diameters_albedos::2.0[mainbelt] (http://adsabs.harvard.edu/abs/2011ApJ...741...68M)  

15878 (1996 XC3)          Discovered 1996-Dec-03 by Kobayashi, T. at Oizumi
Reference: 20000726/Numbers.arcLast Updated: 2004-04-19

[ show close-approach data ]
Alternate Designations
 1996 XC3 = 1999 JW88 
Ephemeris | Orbit Diagram | Orbital Elements | Mission Design | Physical Parameters | Discovery Circumstances | Close-Approach Data ]
ABOUT SSD CREDITS/AWARDS PRIVACY/COPYRIGHT GLOSSARY LINKS
FirstGov 2020-Feb-23 11:50 UT
(server date/time)  
NASA Home Page
Site Manager:   Ryan S. Park
Webmaster  Alan B. Chamberlin